Location: Pian di Sc�
(43.6333°N, 11.5500°E)
Time: 10:05:36
(UTC+00:00)

SeaSat 1 - Pass Details

Date: 07 August 2020
Orbit: 744 x 748 km, 108.0° (Epoch: 18 September)

Event Time Altitude Azimuth Distance (km) Brightness Sun altitude
Rises 03:15:02 0° 24° (NNE) 3,200 6.8 -9.5°
Reaches altitude 10° 03:17:18 10° 22° (NNE) 2,273 5.9 -9.2°
Maximum altitude 03:22:13 70° 300° (WNW) 796 2.5 -8.4°
Drops below altitude 10° 03:27:07 10° 217° (SW) 2,260 4.4 -7.7°
Enters shadow 03:27:43 - 217° (SW) 2,503 4.6 -7.6°
